• In Deutschland
  • Länderverzeichnis
  • Für 7 Tage
  • Wassertemperatur
  • Satellitenkarten
  • Wetterkarte
  • Widgets
  • user-avatar
    Anmelden

    Stündliche Wetter Jequitinhonha

    Heute, 22 Juli, Sonntag

    Zeit Temperatur Niederschläge Wind Luftdruck Luftfeuchtigkeit
    00:00 +20°C° 0 mm 1 m/S 746 mmHg 98%
    01:00 +20°C° 0 mm 1 m/S 746 mmHg 97%
    02:00 +20°C° 0 mm 1 m/S 745 mmHg 97%
    03:00 +20°C° 0 mm 1 m/S 745 mmHg 97%
    04:00 +19°C° 0 mm 1 m/S 745 mmHg 97%
    05:00 +19°C° 0 mm 1 m/S 745 mmHg 97%
    06:00 +19°C° 0 mm 1 m/S 746 mmHg 96%
    07:00 +20°C° 0 mm 1 m/S 746 mmHg 87%
    08:00 +22°C° 0 mm 1 m/S 747 mmHg 77%
    09:00 +24°C° 0 mm 1 m/S 747 mmHg 67%
    10:00 +26°C° 0 mm 2 m/S 747 mmHg 57%
    11:00 +28°C° 0 mm 2 m/S 747 mmHg 48%
    12:00 +30°C° 0 mm 3 m/S 747 mmHg 39%
    13:00 +30°C° 0 mm 3 m/S 746 mmHg 39%
    14:00 +30°C° 0 mm 3 m/S 746 mmHg 40%
    15:00 +30°C° 0 mm 3 m/S 745 mmHg 41%
    16:00 +28°C° 0 mm 3 m/S 745 mmHg 49%
    17:00 +26°C° 0 mm 2 m/S 746 mmHg 58%
    18:00 +24°C° 0 mm 2 m/S 746 mmHg 67%
    19:00 +23°C° 0 mm 1 m/S 746 mmHg 73%
    20:00 +22°C° 0 mm 1 m/S 747 mmHg 80%
    21:00 +21°C° 0 mm 1 m/S 747 mmHg 87%
    22:00 +21°C° 0 mm 1 m/S 747 mmHg 91%
    23:00 +20°C° 0 mm 1 m/S 748 mmHg 94%

    Morgen, 23 Juli, Montag

    Zeit Temperatur Niederschläge Wind Luftdruck Luftfeuchtigkeit
    00:00 +20°C° 0 mm 1 m/S 748 mmHg 97%
    01:00 +20°C° 0 mm 1 m/S 747 mmHg 97%
    02:00 +20°C° 0 mm 1 m/S 747 mmHg 97%
    03:00 +20°C° 0 mm 1 m/S 747 mmHg 97%
    04:00 +20°C° 0 mm 1 m/S 747 mmHg 95%
    05:00 +21°C° 0 mm 1 m/S 747 mmHg 94%
    06:00 +21°C° 0 mm 1 m/S 747 mmHg 92%
    07:00 +22°C° 0 mm 1 m/S 747 mmHg 87%
    08:00 +23°C° 0 mm 1 m/S 748 mmHg 82%
    09:00 +23°C° 0 mm 2 m/S 749 mmHg 77%
    10:00 +25°C° 0,1 mm 1 m/S 749 mmHg 71%
    11:00 +26°C° 0,1 mm 1 m/S 748 mmHg 65%
    12:00 +27°C° 0,1 mm 1 m/S 748 mmHg 59%
    13:00 +27°C° 0 mm 1 m/S 747 mmHg 57%
    14:00 +28°C° 0 mm 2 m/S 746 mmHg 54%
    15:00 +28°C° 0 mm 2 m/S 746 mmHg 51%
    16:00 +27°C° 0,1 mm 2 m/S 746 mmHg 59%
    17:00 +25°C° 0,1 mm 2 m/S 746 mmHg 66%
    18:00 +24°C° 0,1 mm 2 m/S 746 mmHg 74%
    19:00 +23°C° 0,1 mm 2 m/S 747 mmHg 79%
    20:00 +21°C° 0,1 mm 2 m/S 747 mmHg 85%
    21:00 +22°C° 0,1 mm 1 m/S 748 mmHg 91%
    22:00 +21°C° 0 mm 1 m/S 748 mmHg 93%
    23:00 +21°C° 0 mm 1 m/S 748 mmHg 95%

    übermorgen, 24 Juli, Dienstag

    Zeit Temperatur Niederschläge Wind Luftdruck Luftfeuchtigkeit
    00:00 +21°C° 0 mm 1 m/S 748 mmHg 97%
    01:00 +21°C° 0 mm 1 m/S 747 mmHg 96%
    02:00 +20°C° 0 mm 1 m/S 747 mmHg 96%
    03:00 +20°C° 0 mm 1 m/S 747 mmHg 96%
    04:00 +20°C° 0 mm 1 m/S 747 mmHg 97%
    05:00 +19°C° 0 mm 1 m/S 747 mmHg 97%
    06:00 +19°C° 0 mm 1 m/S 747 mmHg 98%
    07:00 +21°C° 0 mm 1 m/S 748 mmHg 89%
    08:00 +23°C° 0 mm 2 m/S 748 mmHg 80%
    09:00 +24°C° 0 mm 2 m/S 749 mmHg 72%
    10:00 +26°C° 0 mm 2 m/S 748 mmHg 64%
    11:00 +28°C° 0 mm 2 m/S 748 mmHg 57%
    12:00 +29°C° 0 mm 3 m/S 748 mmHg 50%
    13:00 +29°C° 0,2 mm 3 m/S 747 mmHg 52%
    14:00 +28°C° 0,2 mm 3 m/S 746 mmHg 55%
    15:00 +28°C° 0,2 mm 3 m/S 746 mmHg 57%
    16:00 +26°C° 0,4 mm 3 m/S 746 mmHg 65%
    17:00 +25°C° 0,4 mm 2 m/S 746 mmHg 73%
    18:00 +23°C° 0,4 mm 2 m/S 746 mmHg 81%
    19:00 +21°C° 0 mm 2 m/S 747 mmHg 85%
    20:00 +20°C° 0 mm 2 m/S 748 mmHg 89%
    21:00 +20°C° 0 mm 2 m/S 748 mmHg 93%
    22:00 +20°C° 0 mm 1 m/S 748 mmHg 94%
    23:00 +20°C° 0 mm 1 m/S 748 mmHg 96%

    25 Juli, Mittwoch

    Zeit Temperatur Niederschläge Wind Luftdruck Luftfeuchtigkeit
    00:00 +19°C° 0 mm 1 m/S 748 mmHg 98%
    01:00 +19°C° 0 mm 1 m/S 748 mmHg 97%
    02:00 +19°C° 0 mm 1 m/S 747 mmHg 97%
    03:00 +20°C° 0 mm 1 m/S 747 mmHg 96%
    04:00 +20°C° 0 mm 1 m/S 747 mmHg 95%
    05:00 +20°C° 0 mm 1 m/S 748 mmHg 94%
    06:00 +20°C° 0 mm 1 m/S 748 mmHg 93%
    07:00 +22°C° 0 mm 1 m/S 749 mmHg 86%
    08:00 +23°C° 0 mm 1 m/S 749 mmHg 79%
    09:00 +24°C° 0 mm 2 m/S 750 mmHg 73%
    10:00 +25°C° 0,1 mm 2 m/S 749 mmHg 67%
    11:00 +26°C° 0,1 mm 2 m/S 749 mmHg 62%
    12:00 +27°C° 0,1 mm 2 m/S 748 mmHg 56%
    13:00 +28°C° 0,2 mm 2 m/S 748 mmHg 56%
    14:00 +28°C° 0,2 mm 2 m/S 747 mmHg 56%
    15:00 +28°C° 0,2 mm 2 m/S 746 mmHg 56%
    16:00 +26°C° 0,1 mm 2 m/S 747 mmHg 62%
    17:00 +25°C° 0,1 mm 2 m/S 747 mmHg 68%
    18:00 +23°C° 0,1 mm 2 m/S 747 mmHg 74%
    19:00 +21°C° 0 mm 2 m/S 748 mmHg 79%
    20:00 +20°C° 0 mm 2 m/S 748 mmHg 83%
    21:00 +20°C° 0 mm 2 m/S 748 mmHg 88%
    22:00 +20°C° 0 mm 1 m/S 748 mmHg 91%
    23:00 +19°C° 0 mm 1 m/S 748 mmHg 94%

    26 Juli, Donnerstag

    Zeit Temperatur Niederschläge Wind Luftdruck Luftfeuchtigkeit
    00:00 +19°C° 0 mm 1 m/S 748 mmHg 97%
    01:00 +19°C° 0 mm 1 m/S 748 mmHg 97%
    02:00 +19°C° 0 mm 1 m/S 747 mmHg 97%
    03:00 +18°C° 0 mm 1 m/S 747 mmHg 98%
    04:00 +18°C° 0 mm 1 m/S 747 mmHg 97%
    05:00 +18°C° 0 mm 1 m/S 748 mmHg 97%
    06:00 +18°C° 0 mm 1 m/S 748 mmHg 97%
    07:00 +20°C° 0 mm 1 m/S 748 mmHg 90%
    08:00 +21°C° 0 mm 1 m/S 749 mmHg 83%
    09:00 +23°C° 0 mm 1 m/S 749 mmHg 77%
    10:00 +24°C° 0 mm 1 m/S 749 mmHg 69%
    11:00 +26°C° 0 mm 2 m/S 748 mmHg 62%
    12:00 +27°C° 0 mm 2 m/S 748 mmHg 55%
    13:00 +27°C° 0 mm 2 m/S 747 mmHg 54%
    14:00 +28°C° 0 mm 2 m/S 746 mmHg 53%
    15:00 +28°C° 0 mm 2 m/S 746 mmHg 51%
    16:00 +27°C° 0 mm 2 m/S 746 mmHg 59%
    17:00 +25°C° 0 mm 1 m/S 746 mmHg 66%
    18:00 +23°C° 0 mm 1 m/S 746 mmHg 73%
    19:00 +22°C° 0 mm 1 m/S 747 mmHg 79%
    20:00 +22°C° 0 mm 1 m/S 747 mmHg 85%
    21:00 +21°C° 0 mm 1 m/S 747 mmHg 91%
    22:00 +20°C° 0 mm 1 m/S 747 mmHg 93%
    23:00 +20°C° 0 mm 1 m/S 747 mmHg 95%

    27 Juli, Freitag

    Zeit Temperatur Niederschläge Wind Luftdruck Luftfeuchtigkeit
    00:00 +20°C° 0 mm 1 m/S 747 mmHg 97%
    01:00 +17°C° 0 mm 0 m/S 746 mmHg 97%
    02:00 +17°C° 0 mm 0 m/S 746 mmHg 97%
    03:00 +17°C° 0 mm 0 m/S 746 mmHg 97%
    04:00 +17°C° 0 mm 0 m/S 746 mmHg 97%
    05:00 +17°C° 0 mm 0 m/S 747 mmHg 97%
    06:00 +18°C° 0 mm 0 m/S 747 mmHg 96%
    07:00 +19°C° 0 mm 0 m/S 747 mmHg 91%
    08:00 +20°C° 0 mm 0 m/S 747 mmHg 85%
    09:00 +21°C° 0 mm 0 m/S 748 mmHg 79%
    10:00 +22°C° 0 mm 0 m/S 747 mmHg 74%
    11:00 +23°C° 0 mm 0 m/S 747 mmHg 69%
    12:00 +24°C° 0 mm 0 m/S 746 mmHg 64%
    13:00 +27°C° 0 mm 1 m/S 746 mmHg 61%
    14:00 +27°C° 0 mm 1 m/S 745 mmHg 58%
    15:00 +28°C° 0 mm 1 m/S 744 mmHg 55%
    16:00 +26°C° 0 mm 1 m/S 744 mmHg 62%
    17:00 +24°C° 0 mm 1 m/S 745 mmHg 68%
    18:00 +23°C° 0 mm 1 m/S 745 mmHg 75%
    19:00 +22°C° 0 mm 1 m/S 745 mmHg 79%
    20:00 +21°C° 0 mm 1 m/S 746 mmHg 83%
    21:00 +20°C° 0 mm 1 m/S 746 mmHg 87%
    22:00 +20°C° 0 mm 1 m/S 746 mmHg 89%
    23:00 +18°C° 0 mm 0 m/S 746 mmHg 92%
    Mehr zeigen